Tracking 35275 objects as of 9-Sep-2026
HD Live streaming from Space Station
objects crossing your sky now

ONEWEB-0184

Track ONEWEB-0184 now!
10-day predictions
ONEWEB-0184 is classified as:


NORAD ID: 48211
Int'l Code: 2021-031B
Launch date: April 25, 2021
Source: United Kingdom (UK)
Launch site: VOSTOCHNY COSMODROME (VOSTO)
Your satellite tracking list
Your tracking list is empty




NASA's NSSDC Master Catalog

Two Line Element Set (TLE):
1 48211U 21031B   26252.49102529  .00000032  00000-0  51202-4 0  9991
2 48211  87.8903 272.8938 0002156  73.4225 286.7142 13.14503628259367
Source of the keplerian elements: AFSPC